Location: Unspecified
(22.6800°N, 112.2000°E)
Time: 07:08:31
(UTC+08:00)

S-56A Canister/Altair - Pass Details

Date: 25 July 2021
Orbit: 632 x 2500 km, 38.9° (Epoch: 26 September)

Event Time Altitude Azimuth Distance (km) Brightness Sun altitude
Rises 23:21:35 0° 304° (WNW) 5,693 12.6 -43.9°
Reaches altitude 10° 23:25:44 10° 305° (NW) 4,447 11.9 -44.3°
Enters shadow 23:34:20 51° 316° (NW) 1,944 9.5 -45.1°
Maximum altitude 23:37:16 79° 32° (NNE) 1,485 - -45.3°
Drops below altitude 10° 23:44:40 10° 119° (ESE) 2,946 - -45.9°
Sets 23:46:54 0° 120° (ESE) 3,708 - -46.0°
